This demonstration page uses our WeatherBlox Daily Observations layout. Learn more.

Left ArrowRight Arrow

Hourly Observations for August 4, 2021

Temp ( °F °C ) Dew Point ( °F °C ) Humidity (%) Winds ( mph kmh ) Pressure ( in mb ) Visibility ( mi km ) Precip ( " mm )
12:53 am 00:53 Clear with Smoke 71 21.7 39 3.9 31 31 N 3 6 29.85 1011 10 16 0.00 0.00
1:53 am 01:53 Clear with Smoke 69 20.6 38 3.3 32 32 Calm 29.85 1011 10 16 0.00 0.00
2:53 am 02:53 Clear with Smoke 68 20 37 2.8 32 32 Calm 29.85 1011 10 16 0.00 0.00
3:53 am 03:53 Clear with Smoke 66 18.9 38 3.3 36 36 Calm 29.86 1011 10 16 0.00 0.00
4:53 am 04:53 Clear with Smoke 63 17.2 37 2.8 38 38 NE 3 6 29.85 1011 10 16 0.00 0.00
5:53 am 05:53 Clear with Smoke 62 16.7 38 3.3 41 41 NW 5 7 29.85 1011 10 16 0.00 0.00
6:53 am 06:53 Sunny with Smoke 63 17.2 40 4.4 43 43 Calm 29.87 1011 10 16 0.00 0.00
7:53 am 07:53 Sunny with Smoke 70 21.1 39 3.9 32 32 Calm 29.87 1012 10 16 0.00 0.00
8:53 am 08:53 Sunny with Smoke 78 25.6 36 2.2 22 22 Calm 29.87 1012 10 16 0.00 0.00
9:53 am 09:53 Sunny with Smoke 84 28.9 35 1.7 17 17 Calm 29.87 1012 6 10 0.00 0.00
10:53 am 10:53 Sunny with Smoke 90 32.2 33 0.6 13 13 Calm 29.86 1011 8 13 0.00 0.00
11:53 am 11:53 Sunny with Smoke 95 35 38 3.3 14 14 S 7 11 29.85 1011 10 16 0.00 0.00
12:53 pm 12:53 Sunny with Smoke 97 36.1 37 2.8 12 12 Calm 29.84 1011 10 16 0.00 0.00
1:53 pm 13:53 Sunny with Smoke 100 37.8 35 1.7 10 10 S 5 7 29.83 1010 9 14 0.00 0.00
2:53 pm 14:53 Sunny with Smoke 102 38.9 34 1.1 9 9 undefined N/A 29.80 1009 10 16 0.00 0.00
3:53 pm 15:53 Sunny with Smoke 104 40 24 -4.4 6 6 SSE 13 20 29.78 1008 10 16 0.00 0.00
4:53 pm 16:53 Sunny with Smoke 104 40 30 -1.1 7 7 SE 12 19 29.75 1008 10 16 0.00 0.00
5:53 pm 17:53 Sunny with Smoke 103 39.4 26 -3.3 6 6 S 12 19 29.75 1008 10 16 0.00 0.00
6:53 pm 18:53 Sunny with Smoke 101 38.3 35 1.7 10 10 S 10 17 29.75 1007 10 16 0.00 0.00
7:53 pm 19:53 Sunny with Smoke 96 35.6 35 1.7 12 12 S 10 17 29.75 1008 10 16 0.00 0.00
8:53 pm 20:53 Clear with Smoke 91 32.8 49 9.4 24 24 S 8 13 29.76 1008 10 16 0.00 0.00
9:53 pm 21:53 Clear with Smoke 88 31.1 50 10 27 27 S 7 11 29.79 1009 10 16 0.00 0.00
10:53 pm 22:53 Clear with Smoke 87 30.6 52 11.1 30 30 SW 5 7 29.79 1009 10 16 0.00 0.00
11:53 pm 23:53 Clear with Smoke 79 26.1 51 10.6 38 38 W 5 7 29.80 1009 10 16 0.00 0.00

Powered by AerisWeather